2019 UH5
ephemeris date magn radius delta ra dec elong phase
Today18 Oct 202530.51.403 AU1.538 AU17h49m-25°12'63.0°39.3°
2019 UH5 - 2025-10-18
astro.vanbuitenen.nl


 
-1 year
-1 month
-1 day
Now
+1 day
+1 month
+1 year

The interactive orbit chart above shows the body's path through the solar system and its position at the given date. Green and blue lines are shown perpendicular to the ecliptic plane: Green if the path is above the ecliptic plane, blue if it is below. (Left-click and drag to rotate the view; Right-click and drag to move the view; Use scroll wheel to zoom in our out.)

The orbital elements of 2019 UH5 are:

            e (Eccentricity)                : 0.2535457
            a (Semimajor axis)              : 1.3507944
            i (Inclination)                 : 2.26518
            Ω (Longitude of ascending node) : 7.47850
            ω (Argument of perihelion)      : 52.27264
            M (Mean anomaly)                : 171.45782
            Epoch                           : 2025 May 05

            L (Longitude of perihelion)     : 59.72946
            B (Latitude of perihelion)      : 1.79143
            P (Orbital period in years)     : 1.57            
        

The light curve chart below shows the estimated development of the minor planet's magnitude.


The all-sky chart below shows the path of the minor planet over the same period as the light curve. The current position is marked yellow.





The following chart shows the path of the minor planet in the next few days. The field of view is optimized for (~10x50) binoculars and finderscopes.




Ephemerides:
Date       Time       RA (2000)    DEC (2000)    delta   radius  elong  phase   PA    magn
2025-10-18 00:00 UT   17 49 03.7   -25 12 57     1.538    1.403   63.0   39.3    92   30.5 
2025-10-18 22:47 UT   17 51 39.0   -25 12 28     1.541    1.399   62.7   39.2    92   30.5 
2025-10-19 00:00 UT   17 51 47.3   -25 12 26     1.541    1.399   62.7   39.2    92   30.5 
2025-10-20 00:00 UT   17 54 31.7   -25 11 44     1.545    1.395   62.3   39.2    91   30.5 
2025-10-21 00:00 UT   17 57 17.0   -25 10 52     1.549    1.392   61.9   39.1    91   30.5 
2025-10-22 00:00 UT   18 00 03.1   -25 09 48     1.552    1.388   61.5   39.1    91   30.5 
2025-10-23 00:00 UT   18 02 50.1   -25 08 34     1.555    1.384   61.2   39.0    91   30.5 
2025-10-24 00:00 UT   18 05 37.9   -25 07 09     1.559    1.381   60.8   39.0    90   30.5 
2025-10-25 00:00 UT   18 08 26.5   -25 05 32     1.562    1.377   60.4   38.9    90   30.5 
2025-10-26 00:00 UT   18 11 15.9   -25 03 44     1.565    1.373   60.1   38.9    90   30.5 
2025-10-27 00:00 UT   18 14 06.2   -25 01 44     1.568    1.370   59.7   38.8    90   30.5 
2025-10-28 00:00 UT   18 16 57.2   -24 59 32     1.571    1.366   59.4   38.8    89   30.5 
2025-10-29 00:00 UT   18 19 48.9   -24 57 08     1.574    1.362   59.0   38.7    89   30.5 
2025-10-30 00:00 UT   18 22 41.4   -24 54 32     1.577    1.359   58.7   38.6    89   30.5 
2025-10-31 00:00 UT   18 25 34.7   -24 51 44     1.580    1.355   58.3   38.6    88   30.5 


    Terminology:
            
    delta:  distance between minor planet and earth in AU
    radius: distance between minor planet and sun in AU
    magn:   magnitude (brightness) estimate    
    ra:     right ascension in hours (24h = 360deg)
    dec:    declination in degrees
    elong:  elongation in degrees (angle sun-earth-minor planet)    
    phase:  phase angle in degrees (angle sun-minor planet-earth)        
    AU:     Astronomical Unit (mean distance between earth and sun: 149597870.7 km
    

Orbital elements provided by the MPC (Minor Planet Center).
Calculations by a modified version of AAPlus, a C# implementation of the AA+ project by PJ Naughter from the algorithms presented in the book "Astronomical Algorithms" by Jean Meeus.
NGC2000 dso catalog and star labels from VizieR as provided by the Strasbourg astronomical Data Center.
Tycho2 catalog from the ESO archive.